"Pseudo-MPEC" for P11DAVk

Created 2023 Mar 26 6:22:08 UT using Find_Orb

Click here for an explanation of pseudo-MPECs

 
 Astrometry: 
     P11DAVk* C2023 03 18?oaI1arW\i;Z-NamA6,xXa8/][n4M3]FN-Wi%iKn^_V3I.6/-HJ/F51
     P11DAVk  C2023 03 18aZFv(ZIpoDKMhAstrometryPmyTSUgSXPDh]l8F-Ll)UL-KjIo)7F51
     P11DAVk  C2023 03 18Fy+yT^.ukfK5.b\!.iMM('Z-q6WgtHgsS@'kNW]:\L#E.$-RQ.%4F51
     P11DAVk  C2023 03 18i9u:O,redacted;[clickIUHwbB$Tp5kerqh=F$2Q27?UP;pYGQ]F51
     P11DAVk  C2023 03 18VTZ?v8MmN2FiT=oA'Q.rK=f36gesD?S=oEjsbNsQ(j!\f\hNU9k1F52
     P11DAVk  C2023 03 18%%GFD@D=Ma2sQOFmWtE:Fv*\d2k#$#\]$)[y'xLidytmhKtge8g;F52
     P11DAVk 2C2023 03 22wI/;]gr@Jv#+u*]MHUH;Uj@OW_BD!?m'(bpZ^t1;Zhere,F=bs?uJ04
     P11DAVk 3C2023 03 225seU#B;y@rhwP;JeTEvo%\ovEC=Q6^,mZ!l!qfordin?sdi^hZ3mT14
     P11DAVk 3C2023 03 22q]j`Yx7Iexplanation\wq=ycrp(;?!4)jM!Y-h$KJtQ0-*!1fy(T14
     P11DAVk 3C2023 03 22]REU'JA(_$Mf%`MH@,sk%Uh/WyOV[gbBdbG`j`dqLDWylR+?CfxxT14

Station data:
(F51) Pan-STARRS 1, Haleakala  (N20.707234 W156.255910)  US/Hawaii.
   Observers J. Bulger, T. Lowe, A. Schultz, M. Willman. Measurers K.
   Chambers, S. Chastel, T. de Boer, L. Denneau, J. Fairlamb, H. Flewelling,
   M. Huber, C.-C. Lin, E. Magnier, Y. Ramanjooloo, R. Wainscoat, R. Weryk.
   1.8-m Ritchey-Chrétien + CCD.
(F52) Pan-STARRS 2, Haleakala  (N20.707382 W156.255910)  US/Hawaii.
   Observers J. Bulger, T. Dukes, T. Lowe, A. Schultz, M. Willman. Measurers
   K. Chambers, S. Chastel, T. de Boer, L. Denneau, J. Fairlamb, H.
   Flewelling, M. Huber, C.-C. Lin, E. Magnier, Y. Ramanjooloo, R. Wainscoat,
   R. Weryk. 1.8-m Ritchey-Chrétien + CCD.
(J04) ESA Optical Ground Station, Tenerife  (N28.300921 W16.511830)  Canary
   Islands (Spain).  Observer D. Abreu. Measurers M. Micheli, D. Koschny, E.
   Schwab, M. Busch, A. Knöfel. 1.0-m f/4.4 reflector + CCD.
(T14) Mauna Kea-UH/Tholen NEO Follow-Up (CFHT)  (N19.825252 W155.468876)
   US/Hawaii. 3.6-m Canada-France-Hawaii Telescope.

Orbital elements:  P11DAVk
   Perihelion 2023 May 30.76115 +/- 3.42 TT = 18:16:03 (JD 2460095.26115)
Epoch 2023 Mar 22.0 TT = JDT 2460025.5   Earth MOID: 0.2152      AutoNEOCP
M 332.98885415 +/- 3.0              (J2000 ecliptic)
n   0.38719468 +/- 0.0259           Peri.  168.18652 +/- 4.1
a   1.86430282 +/- 0.0832           Node    58.83851 +/- 4.0
e   0.3437670 +/- 0.0446            Incl.    8.76861 +/- 0.07
P   2.55/929.75d           H 21.43  G  0.15   U 10.3
q 1.22341698 +/- 0.0292    Q 2.50518866 +/- 0.195
From 10 observations 2023 Mar. 18-22; mean residual 0".06
Residuals in arcseconds: 
230318 F51  .02-  .07+    230318 F52  .01-  .02-    230322 T14  .08-  .11-    
230318 F51  .02+  .08-    230318 F52  .03-  .01-    230322 T14  .02+  .00     
230318 F51  .00   .07+    230322 J04  .06+  .02-    
230318 F51  .06+  .04-    230322 T14  .06+  .10+    

Ephemerides (geocentric):
Date (UTC) HH   RA             Dec           delta  r     elong  mag " sig PA
---- --------  ------------   ------------  ------ ------ -----  --- --------
2023 03 26 06  10 56 31.870   +34 13 16.00  .43324 1.3545 139.0 21.6 39.4  56
2023 03 26 07  10 56 29.397   +34 13 03.20  .43319 1.3544 139.0 21.6 40.1  56
2023 03 26 08  10 56 26.928   +34 12 50.30  .43315 1.3542 138.9 21.6 40.7  55
2023 03 26 09  10 56 24.463   +34 12 37.32  .43310 1.3541 138.9 21.6 41.3  55
2023 03 26 10  10 56 22.001   +34 12 24.25  .43305 1.3539 138.9 21.6 42.0  55
2023 03 26 11  10 56 19.544   +34 12 11.09  .43300 1.3538 138.8 21.6 42.6  55
2023 03 26 12  10 56 17.091   +34 11 57.84  .43296 1.3536 138.8 21.6 43.3  55
2023 03 26 13  10 56 14.641   +34 11 44.51  .43291 1.3535 138.8 21.6 44.0  55
2023 03 26 14  10 56 12.196   +34 11 31.08  .43286 1.3533 138.7 21.6 44.6  55
2023 03 26 15  10 56 09.754   +34 11 17.57  .43282 1.3532 138.7 21.6 45.3  55
2023 03 26 16  10 56 07.317   +34 11 03.97  .43277 1.3530 138.7 21.6 46.0  55
2023 03 26 17  10 56 04.884   +34 10 50.28  .43273 1.3529 138.6 21.6 46.6  55
2023 03 26 18  10 56 02.455   +34 10 36.50  .43268 1.3527 138.6 21.6 47.3  55
2023 03 26 19  10 56 00.029   +34 10 22.64  .43264 1.3526 138.6 21.6 48.0  55
2023 03 26 20  10 55 57.608   +34 10 08.68  .43259 1.3524 138.5 21.6 48.7  54
2023 03 26 21  10 55 55.191   +34 09 54.64  .43254 1.3523 138.5 21.6 49.4  54
2023 03 26 22  10 55 52.778   +34 09 40.51  .43250 1.3521 138.5 21.6 50.1  54
2023 03 26 23  10 55 50.370   +34 09 26.29  .43245 1.3520 138.4 21.6 50.8  54
2023 03 27 00  10 55 47.965   +34 09 11.98  .43241 1.3518 138.4 21.6 51.5  54
2023 03 27 01  10 55 45.564   +34 08 57.59  .43237 1.3517 138.4 21.6 52.2  54
2023 03 27 02  10 55 43.168   +34 08 43.10  .43232 1.3515 138.3 21.6 53.0  54
2023 03 27 03  10 55 40.776   +34 08 28.53  .43228 1.3514 138.3 21.6 53.7  54
2023 03 27 04  10 55 38.388   +34 08 13.87  .43223 1.3512 138.3 21.6 54.4  54
2023 03 27 05  10 55 36.004   +34 07 59.12  .43219 1.3511 138.2 21.6 55.2  54
2023 03 27 06  10 55 33.624   +34 07 44.29  .43214 1.3509 138.2 21.6 55.9  54
2023 03 27 07  10 55 31.249   +34 07 29.36  .43210 1.3508 138.2 21.6 56.6  54
2023 03 27 08  10 55 28.877   +34 07 14.35  .43206 1.3506 138.1 21.6 57.4  54
2023 03 27 09  10 55 26.510   +34 06 59.25  .43201 1.3505 138.1 21.6 58.1  53
2023 03 27 10  10 55 24.147   +34 06 44.06  .43197 1.3503 138.1 21.6 58.9  53
2023 03 27 11  10 55 21.789   +34 06 28.78  .43193 1.3502 138.0 21.6 59.7  53
2023 03 27 12  10 55 19.435   +34 06 13.42  .43188 1.3500 138.0 21.6 60.4  53
2023 03 27 13  10 55 17.085   +34 05 57.97  .43184 1.3499 138.0 21.6 61.2  53
2023 03 27 14  10 55 14.739   +34 05 42.43  .43180 1.3497 137.9 21.6 62.0  53
2023 03 27 15  10 55 12.397   +34 05 26.80  .43176 1.3496 137.9 21.6 62.8  53
2023 03 27 16  10 55 10.060   +34 05 11.08  .43171 1.3494 137.9 21.6 63.6  53
2023 03 27 17  10 55 07.728   +34 04 55.28  .43167 1.3493 137.9 21.6 64.3  53
2023 03 27 18  10 55 05.399   +34 04 39.38  .43163 1.3491 137.8 21.6 65.1  53
2023 03 27 19  10 55 03.075   +34 04 23.40  .43159 1.3490 137.8 21.6 65.9  53
2023 03 27 20  10 55 00.755   +34 04 07.34  .43155 1.3488 137.8 21.6 66.8  53
2023 03 27 21  10 54 58.440   +34 03 51.18  .43150 1.3487 137.7 21.6 67.6  53
2023 03 27 22  10 54 56.129   +34 03 34.94  .43146 1.3485 137.7 21.6 68.4  53
2023 03 27 23  10 54 53.822   +34 03 18.61  .43142 1.3484 137.7 21.6 69.2  52
2023 03 28 00  10 54 51.520   +34 03 02.19  .43138 1.3482 137.6 21.6 70.0  52
2023 03 28 01  10 54 49.222   +34 02 45.68  .43134 1.3481 137.6 21.6 70.9  52
2023 03 28 02  10 54 46.928   +34 02 29.09  .43130 1.3479 137.6 21.6 71.7  52
2023 03 28 03  10 54 44.639   +34 02 12.41  .43126 1.3478 137.5 21.6 72.5  52
2023 03 28 04  10 54 42.355   +34 01 55.64  .43122 1.3477 137.5 21.6 73.4  52
2023 03 28 05  10 54 40.075   +34 01 38.78  .43118 1.3475 137.5 21.6 74.2  52